Location: Unspecified
(51.5147°N, 7.4673°E)
Time: 02:29:29
(UTC+01:00)

Vanguard 1 Rocket - Pass Details

Date: 20 February 2026
Orbit: 653 x 4214 km, 34.3° (Epoch: 12 March)

Event Time Altitude Azimuth Distance (km) Brightness Sun altitude
Rises 17:41:56 0° 264° (W) 5,516 13.5 1.0°
Reaches altitude 10° 17:45:25 10° 256° (WSW) 4,937 13.5 0.5°
Maximum altitude 17:58:37 35° 198° (SSW) 4,521 11.3 -1.5°
Drops below altitude 10° 18:18:33 10° 144° (SE) 7,339 11.8 -4.5°
Sets 18:25:27 0° 137° (SE) 8,450 12.0 -5.6°
